Find Starlink 35043

NORAD ID: 65436 Int'l Des: 2025-194 Owner: SPXS Country: US Constellation: starlink operational
LEOCIRCULARRETROGRADESSO

現在のビュー

3D地球を読み込み中...

About Starlink 35043

Starlink 35043 (NORAD 65436) is a starlink constellation satellite (v2 mini) launched Sep 3, 2025 by SPXS of US. It operates in LEO, CIRCULAR, RETROGRADE, SSO orbit with a mass of 575.00 kg.

次回通過

Passes for default location (London). Set your location on the main map for personalized predictions.

高度履歴

Loading altitude history...

軌道要素

1 65436U 25194C 26263.83439518 .00003828 00000-0 23559-3 0 9993
2 65436 97.2849 113.5917 0002170 84.5964 275.5514 15.10570529 59039
Epoch: Sep 20, 2026 • Age: 11 hours

現在のステータス

高度 540.0 km
遠地点 / 近地点 N/A
速度 7.60 km/s
衛星直下点 44.51°N, 3.6°W
打ち上げ日 Sep 3, 2025
運用期間 1 year
タイプ internet

技術仕様

分類 Payload
質量 575.00 kg
乾燥質量 530.00 kg
長さ 0.30 m
スパン 29.00 m
形状 ? Box + pan
製造者 SPXS
バスタイプ Starlink V2MO
フェーズステータス In Orbit
所有者/国 SPXS/US

Most Searched